Location: Unspecified
(0.0000°N, 0.0000°E)
Time: 20:15:35
(UTC+01:00)

Delta 168 - Visible Passes

Search period start: 17 January 2017 00:00
Search period end: 27 January 2017 00:00
Orbit: 394 x 2068 km, 25.3° (Epoch: 17 January)

Date Brightness Start Highest point End Pass type
(mag) Time Alt. Az. Time Alt. Az. Time Alt. Az.
17 Jan 4.1 05:43:23 30° NW 05:46:30 56° NNE 05:51:16 10° ESE visible
17 Jan 5.7 19:23:36 10° W 19:32:39 55° NNW 19:44:44 10° NE visible
17 Jan 6.4 21:23:42 10° WNW 21:33:15 29° NNW 21:35:52 27° N visible
18 Jan 6.7 03:43:38 10° ENE 03:43:38 10° ENE 03:43:39 10° ENE visible
18 Jan 4.0 05:33:39 39° NW 05:36:18 67° NNE 05:41:25 10° ESE visible
18 Jan 6.5 21:13:42 10° WNW 21:22:44 27° NNW 21:26:02 24° N visible
19 Jan 6.8 03:33:53 10° ENE 03:33:53 10° ENE 03:33:55 10° ENE visible
19 Jan 4.0 05:23:55 49° NW 05:26:02 78° NNE 05:31:30 10° ESE visible
19 Jan 6.6 21:03:45 10° WNW 21:12:16 25° NNW 21:16:10 22° NNE visible
19 Jan 7.4 23:06:09 10° NW 23:06:11 10° NW 23:06:11 10° NW visible
20 Jan 4.1 05:14:09 60° WNW 05:15:43 88° NNE 05:21:31 10° ESE visible
20 Jan 6.6 20:53:52 10° WNW 21:01:51 23° N 21:06:18 19° NNE visible
20 Jan 7.3 22:55:49 10° NW 22:56:19 11° NW 22:56:19 11° NW visible
21 Jan 4.2 05:04:22 70° W 05:05:21 82° SSW 05:11:31 10° ESE visible
21 Jan 6.6 20:44:02 10° NW 20:51:27 21° N 20:56:24 17° NNE visible
21 Jan 7.3 22:45:29 10° NW 22:46:25 12° NNW 22:46:25 12° NNW visible
22 Jan 4.4 04:54:33 73° SW 04:54:56 74° SSW 05:01:28 10° SE visible
22 Jan 5.5 06:47:13 10° WSW 06:52:11 20° SSW 06:56:01 10° SSE visible
22 Jan 6.6 20:34:16 10° NW 20:41:06 20° N 20:46:30 14° NNE visible
22 Jan 7.2 22:35:08 10° NW 22:36:31 13° NNW 22:36:31 13° NNW visible
23 Jan 4.6 04:44:41 67° SSW 04:44:41 67° SSW 04:51:22 10° SE visible
23 Jan 5.7 06:36:49 10° WSW 06:41:54 19° SSW 06:45:52 10° SSE visible
23 Jan 6.7 20:24:34 10° NW 20:30:48 18° N 20:36:35 12° NNE visible
23 Jan 7.1 22:24:47 10° NNW 22:26:36 13° NNW 22:26:36 13° NNW visible
24 Jan 4.9 04:34:48 59° S 04:34:48 59° S 04:41:13 10° SE visible
24 Jan 5.9 06:26:25 10° WSW 06:31:36 18° SSW 06:35:41 10° SSE visible
24 Jan 6.7 20:14:54 10° NW 20:20:31 16° N 20:26:41 11° NNE visible
24 Jan 7.0 22:14:26 10° NNW 22:16:41 14° NNW 22:16:41 14° NNW visible
25 Jan 5.2 04:24:53 52° S 04:24:53 52° S 04:31:02 10° SE visible
25 Jan 6.0 06:15:59 10° WSW 06:21:17 18° SSW 06:25:30 10° S visible
25 Jan 6.7 20:05:19 10° NNW 20:10:16 15° N 20:15:58 10° NNE visible
25 Jan 6.9 22:04:04 10° NNW 22:06:47 15° NNW 22:06:47 15° NNW visible
26 Jan 5.5 04:14:54 46° S 04:14:54 46° S 04:20:48 10° SE visible
26 Jan 6.1 06:05:33 10° WSW 06:10:58 17° SSW 06:15:19 10° S visible
26 Jan 6.7 19:55:47 10° NNW 20:00:03 14° N 20:04:54 10° NNE visible
26 Jan 6.8 21:53:43 10° NNW 21:56:54 16° NNW 21:56:54 16° NNW visible
